Powrót do katalogu

STARLINK-35577

AktywnyŁącznośćVLEO
NORAD 66538·PAYLOAD·🇺🇸 United States

Wystrzelony Nov 19, 2025 z Cape Canaveral Space Force Station

Loading…

Następne Przeloty (najbliższe 24 godziny)

TLE

ŚwieżeSource: CelesTrak SupGP

Epoka: Sep 15, 2026, 03:53 UTC

1 66538C 25265Y   26258.16229167 -.00011204  00000+0 -40577-3 0  2588
2 66538  43.0000 287.8667 0001212 265.4356   2.9854 15.27587128    13

Śledź STARLINK-35577 w czasie rzeczywistym z AllMySat

Download on the App Store